Time,TemperatureF,DewpointF,PressureIn,WindDirection,WindDirectionDegrees,WindSpeedMPH,WindSpeedGustMPH,Humidity,HourlyPrecipIn,Conditions,Clouds,dailyrainin,SolarRadiationWatts/m^2,SoftwareType,DateUTC
2015-02-26 00:02:00,19.0,13.6,29.92,NNE,24,5.0,11.0,79,0.00,,,0.00,0,HR-IXPWINDi_r2_v1.2.,2015-02-26 05:02:00,
2015-02-26 00:07:00,18.9,13.5,29.91,NNE,16,8.0,12.0,79,0.00,,,0.00,0,HR-IXPWINDi_r2_v1.2.,2015-02-26 05:07:00,
2015-02-26 00:12:00,18.9,13.5,29.91,North,10,9.0,12.0,79,0.00,,,0.00,0,HR-IXPWINDi_r2_v1.2.,2015-02-26 05:12:00,
2015-02-26 00:17:00,18.8,13.4,29.92,North,5,13.0,13.0,79,0.00,,,0.00,0,HR-IXPWINDi_r2_v1.2.,2015-02-26 05:17:00,
2015-02-26 00:22:00,18.8,13.4,29.92,North,11,9.0,13.0,79,0.00,,,0.00,0,HR-IXPWINDi_r2_v1.2.,2015-02-26 05:22:00,
2015-02-26 00:27:00,18.8,13.4,29.92,NNE,22,7.0,13.0,79,0.00,,,0.00,0,HR-IXPWINDi_r2_v1.2.,2015-02-26 05:27:00,
2015-02-26 00:32:00,18.8,13.4,29.92,NNE,15,7.0,12.0,79,0.00,,,0.00,0,HR-IXPWINDi_r2_v1.2.,2015-02-26 05:32:00,
2015-02-26 00:37:00,18.8,13.4,29.92,NNE,22,8.0,12.0,79,0.00,,,0.00,0,HR-IXPWINDi_r2_v1.2.,2015-02-26 05:37:00,
2015-02-26 00:42:00,18.8,13.4,29.92,NNE,14,6.0,11.0,79,0.00,,,0.00,0,HR-IXPWINDi_r2_v1.2.,2015-02-26 05:42:00,
2015-02-26 00:47:00,18.8,13.4,29.92,NNE,26,5.0,11.0,79,0.00,,,0.00,0,HR-IXPWINDi_r2_v1.2.,2015-02-26 05:47:00,
2015-02-26 00:52:00,18.8,13.4,29.92,NNE,21,6.0,9.0,79,0.00,,,0.00,0,HR-IXPWINDi_r2_v1.2.,2015-02-26 05:52:00,
2015-02-26 00:57:00,18.7,13.3,29.92,North,11,8.0,10.0,79,0.00,,,0.00,0,HR-IXPWINDi_r2_v1.2.,2015-02-26 05:57:00,
2015-02-26 01:02:00,18.7,13.3,29.92,North,9,8.0,11.0,79,0.00,,,0.00,0,HR-IXPWINDi_r2_v1.2.,2015-02-26 06:02:00,
2015-02-26 01:07:00,18.6,13.2,29.92,NNE,12,5.0,11.0,79,0.00,,,0.00,0,HR-IXPWINDi_r2_v1.2.,2015-02-26 06:07:00,
2015-02-26 01:12:00,18.6,13.2,29.92,NNE,19,7.0,10.0,79,0.00,,,0.00,0,HR-IXPWINDi_r2_v1.2.,2015-02-26 06:12:00,
2015-02-26 01:17:00,18.5,13.4,29.92,NNE,19,7.0,10.0,80,0.00,,,0.00,0,HR-IXPWINDi_r2_v1.2.,2015-02-26 06:17:00,
2015-02-26 01:22:00,18.4,13.3,29.92,North,10,9.0,10.0,80,0.00,,,0.00,0,HR-IXPWINDi_r2_v1.2.,2015-02-26 06:22:00,
2015-02-26 01:27:00,18.3,13.2,29.92,North,9,8.0,10.0,80,0.00,,,0.00,0,HR-IXPWINDi_r2_v1.2.,2015-02-26 06:27:00,
2015-02-26 01:32:00,18.2,13.1,29.92,NNE,16,8.0,9.0,80,0.00,,,0.00,0,HR-IXPWINDi_r2_v1.2.,2015-02-26 06:32:00,
2015-02-26 01:37:00,18.1,13.0,29.92,NNE,17,9.0,11.0,80,0.00,,,0.00,0,HR-IXPWINDi_r2_v1.2.,2015-02-26 06:37:00,
2015-02-26 01:42:00,18.1,13.0,29.91,NNE,14,7.0,11.0,80,0.00,,,0.00,0,HR-IXPWINDi_r2_v1.2.,2015-02-26 06:42:00,
2015-02-26 01:47:00,18.0,12.9,29.91,NNE,15,8.0,12.0,80,0.00,,,0.00,0,HR-IXPWINDi_r2_v1.2.,2015-02-26 06:47:00,
2015-02-26 01:52:00,18.0,12.9,29.92,NNE,12,8.0,12.0,80,0.00,,,0.00,0,HR-IXPWINDi_r2_v1.2.,2015-02-26 06:52:00,
2015-02-26 01:57:00,17.9,12.8,29.91,NNE,17,7.0,12.0,80,0.00,,,0.00,0,HR-IXPWINDi_r2_v1.2.,2015-02-26 06:57:00,
2015-02-26 02:02:00,17.9,12.5,29.92,NNE,15,8.0,13.0,79,0.00,,,0.00,0,HR-IXPWINDi_r2_v1.2.,2015-02-26 07:02:00,
2015-02-26 02:07:00,17.8,12.4,29.92,NNE,13,9.0,14.0,79,0.00,,,0.00,0,HR-IXPWINDi_r2_v1.2.,2015-02-26 07:07:00,
2015-02-26 02:12:00,17.7,12.3,29.92,NNE,15,10.0,15.0,79,0.00,,,0.00,0,HR-IXPWINDi_r2_v1.2.,2015-02-26 07:12:00,
2015-02-26 02:17:00,17.7,12.3,29.92,NNE,24,8.0,15.0,79,0.00,,,0.00,0,HR-IXPWINDi_r2_v1.2.,2015-02-26 07:17:00,
2015-02-26 02:22:00,17.6,12.2,29.91,NNE,22,8.0,12.0,79,0.00,,,0.00,0,HR-IXPWINDi_r2_v1.2.,2015-02-26 07:22:00,
2015-02-26 02:27:00,17.4,12.0,29.91,NNE,15,7.0,12.0,79,0.00,,,0.00,0,HR-IXPWINDi_r2_v1.2.,2015-02-26 07:27:00,
2015-02-26 02:32:00,17.3,12.0,29.92,NNE,19,8.0,12.0,79,0.00,,,0.00,0,HR-IXPWINDi_r2_v1.2.,2015-02-26 07:32:00,
2015-02-26 02:37:00,17.2,11.9,29.92,North,11,12.0,13.0,79,0.00,,,0.00,0,HR-IXPWINDi_r2_v1.2.,2015-02-26 07:37:00,
2015-02-26 02:42:00,17.1,11.8,29.92,NNE,24,11.0,13.0,79,0.00,,,0.00,0,HR-IXPWINDi_r2_v1.2.,2015-02-26 07:42:00,
2015-02-26 02:47:00,17.0,11.7,29.92,NNE,16,9.0,14.0,79,0.00,,,0.00,0,HR-IXPWINDi_r2_v1.2.,2015-02-26 07:47:00,
2015-02-26 02:52:00,16.9,11.6,29.92,North,11,8.0,14.0,79,0.00,,,0.00,0,HR-IXPWINDi_r2_v1.2.,2015-02-26 07:52:00,
2015-02-26 02:57:00,16.8,11.5,29.91,NE,34,9.0,13.0,79,0.00,,,0.00,0,HR-IXPWINDi_r2_v1.2.,2015-02-26 07:57:00,
2015-02-26 03:02:00,16.8,11.5,29.91,North,10,7.0,13.0,79,0.00,,,0.00,0,HR-IXPWINDi_r2_v1.2.,2015-02-26 08:02:00,
2015-02-26 03:07:00,16.7,11.4,29.91,NNE,17,10.0,13.0,79,0.00,,,0.00,0,HR-IXPWINDi_r2_v1.2.,2015-02-26 08:07:00,
2015-02-26 03:12:00,16.6,11.3,29.91,NNE,25,10.0,13.0,79,0.00,,,0.00,0,HR-IXPWINDi_r2_v1.2.,2015-02-26 08:12:00,
2015-02-26 03:17:00,16.6,11.3,29.91,NNE,26,9.0,14.0,79,0.00,,,0.00,0,HR-IXPWINDi_r2_v1.2.,2015-02-26 08:17:00,
2015-02-26 03:22:00,16.6,11.3,29.92,North,5,11.0,14.0,79,0.00,,,0.00,0,HR-IXPWINDi_r2_v1.2.,2015-02-26 08:22:00,
2015-02-26 03:27:00,16.6,11.3,29.92,North,9,13.0,15.0,79,0.00,,,0.00,0,HR-IXPWINDi_r2_v1.2.,2015-02-26 08:27:00,
2015-02-26 03:32:00,16.7,11.4,29.92,North,10,12.0,15.0,79,0.00,,,0.00,0,HR-IXPWINDi_r2_v1.2.,2015-02-26 08:32:00,
2015-02-26 03:37:00,16.7,11.4,29.92,NNE,17,12.0,15.0,79,0.00,,,0.00,0,HR-IXPWINDi_r2_v1.2.,2015-02-26 08:37:00,
2015-02-26 03:42:00,16.7,11.7,29.92,North,5,12.0,15.0,80,0.00,,,0.00,0,HR-IXPWINDi_r2_v1.2.,2015-02-26 08:42:00,
2015-02-26 03:47:00,16.7,11.7,29.92,North,10,10.0,15.0,80,0.00,,,0.00,0,HR-IXPWINDi_r2_v1.2.,2015-02-26 08:47:00,
2015-02-26 03:52:00,16.7,11.7,29.92,North,355,12.0,15.0,80,0.00,,,0.00,0,HR-IXPWINDi_r2_v1.2.,2015-02-26 08:52:00,
2015-02-26 03:57:00,16.7,11.7,29.93,North,5,11.0,14.0,80,0.00,,,0.00,0,HR-IXPWINDi_r2_v1.2.,2015-02-26 08:57:00,
2015-02-26 04:02:00,16.6,11.3,29.92,North,9,10.0,15.0,79,0.00,,,0.00,0,HR-IXPWINDi_r2_v1.2.,2015-02-26 09:02:00,
2015-02-26 04:07:00,16.5,11.2,29.93,North,360,13.0,16.0,79,0.00,,,0.00,0,HR-IXPWINDi_r2_v1.2.,2015-02-26 09:07:00,
2015-02-26 04:12:00,16.5,11.2,29.92,North,355,13.0,16.0,79,0.00,,,0.00,0,HR-IXPWINDi_r2_v1.2.,2015-02-26 09:12:00,
2015-02-26 04:17:00,16.4,11.1,29.92,North,5,12.0,18.0,79,0.00,,,0.00,0,HR-IXPWINDi_r2_v1.2.,2015-02-26 09:17:00,
2015-02-26 04:22:00,16.4,11.1,29.92,North,5,13.0,18.0,79,0.00,,,0.00,0,HR-IXPWINDi_r2_v1.2.,2015-02-26 09:22:00,
2015-02-26 04:27:00,16.3,11.0,29.92,North,5,11.0,15.0,79,0.00,,,0.00,0,HR-IXPWINDi_r2_v1.2.,2015-02-26 09:27:00,
2015-02-26 04:32:00,16.2,10.9,29.92,North,10,11.0,18.0,79,0.00,,,0.00,0,HR-IXPWINDi_r2_v1.2.,2015-02-26 09:32:00,
2015-02-26 04:37:00,16.1,10.5,29.92,North,5,14.0,18.0,78,0.00,,,0.00,0,HR-IXPWINDi_r2_v1.2.,2015-02-26 09:37:00,
2015-02-26 04:42:00,15.9,10.3,29.92,NNE,13,9.0,17.0,78,0.00,,,0.00,0,HR-IXPWINDi_r2_v1.2.,2015-02-26 09:42:00,
2015-02-26 04:47:00,15.8,10.2,29.92,NNE,19,8.0,17.0,78,0.00,,,0.00,0,HR-IXPWINDi_r2_v1.2.,2015-02-26 09:47:00,
2015-02-26 04:52:00,15.7,10.1,29.92,NNE,13,11.0,13.0,78,0.00,,,0.00,0,HR-IXPWINDi_r2_v1.2.,2015-02-26 09:52:00,
2015-02-26 04:57:00,15.6,10.0,29.92,North,11,9.0,13.0,78,0.00,,,0.00,0,HR-IXPWINDi_r2_v1.2.,2015-02-26 09:57:00,
2015-02-26 05:02:00,15.5,9.9,29.92,NNE,16,9.0,13.0,78,0.00,,,0.00,0,HR-IXPWINDi_r2_v1.2.,2015-02-26 10:02:00,
2015-02-26 05:07:00,15.5,10.2,29.93,NNE,19,9.0,13.0,79,0.00,,,0.00,0,HR-IXPWINDi_r2_v1.2.,2015-02-26 10:07:00,
2015-02-26 05:12:00,15.4,10.1,29.93,NNE,13,10.0,13.0,79,0.00,,,0.00,0,HR-IXPWINDi_r2_v1.2.,2015-02-26 10:12:00,
2015-02-26 05:17:00,15.4,10.1,29.93,NNE,26,8.0,12.0,79,0.00,,,0.00,0,HR-IXPWINDi_r2_v1.2.,2015-02-26 10:17:00,
2015-02-26 05:22:00,15.4,10.1,29.93,NNE,15,4.0,11.0,79,0.00,,,0.00,0,HR-IXPWINDi_r2_v1.2.,2015-02-26 10:22:00,
2015-02-26 05:27:00,15.3,9.7,29.93,NNE,12,10.0,14.0,78,0.00,,,0.00,0,HR-IXPWINDi_r2_v1.2.,2015-02-26 10:27:00,
2015-02-26 05:32:00,15.3,9.7,29.94,North,351,11.0,14.0,78,0.00,,,0.00,0,HR-IXPWINDi_r2_v1.2.,2015-02-26 10:32:00,
2015-02-26 05:37:00,15.2,9.6,29.94,North,5,12.0,14.0,78,0.00,,,0.00,0,HR-IXPWINDi_r2_v1.2.,2015-02-26 10:37:00,
2015-02-26 05:42:00,15.1,9.5,29.94,North,11,11.0,14.0,78,0.00,,,0.00,0,HR-IXPWINDi_r2_v1.2.,2015-02-26 10:42:00,
2015-02-26 05:47:00,15.0,9.4,29.94,NNE,14,11.0,14.0,78,0.00,,,0.00,0,HR-IXPWINDi_r2_v1.2.,2015-02-26 10:47:00,
2015-02-26 05:52:00,15.0,9.4,29.94,North,360,12.0,14.0,78,0.00,,,0.00,0,HR-IXPWINDi_r2_v1.2.,2015-02-26 10:52:00,
2015-02-26 05:57:00,15.0,9.4,29.94,North,11,11.0,14.0,78,0.00,,,0.00,0,HR-IXPWINDi_r2_v1.2.,2015-02-26 10:57:00,
2015-02-26 06:02:00,14.9,9.3,29.94,North,11,12.0,14.0,78,0.00,,,0.00,0,HR-IXPWINDi_r2_v1.2.,2015-02-26 11:02:00,
2015-02-26 06:07:00,14.9,9.3,29.93,NNE,16,11.0,14.0,78,0.00,,,0.00,0,HR-IXPWINDi_r2_v1.2.,2015-02-26 11:07:00,
2015-02-26 06:12:00,14.8,9.5,29.93,NNE,20,11.0,13.0,79,0.00,,,0.00,0,HR-IXPWINDi_r2_v1.2.,2015-02-26 11:12:00,
2015-02-26 06:17:00,14.7,9.4,29.94,NNE,15,9.0,15.0,79,0.00,,,0.00,0,HR-IXPWINDi_r2_v1.2.,2015-02-26 11:17:00,
2015-02-26 06:22:00,14.6,9.3,29.94,NNE,17,9.0,15.0,79,0.00,,,0.00,0,HR-IXPWINDi_r2_v1.2.,2015-02-26 11:22:00,
2015-02-26 06:27:00,14.5,9.2,29.95,North,5,12.0,16.0,79,0.00,,,0.00,0,HR-IXPWINDi_r2_v1.2.,2015-02-26 11:27:00,
2015-02-26 06:32:00,14.5,9.5,29.97,NNW,344,13.0,16.0,80,0.00,,,0.00,0,HR-IXPWINDi_r2_v1.2.,2015-02-26 11:32:00,
2015-02-26 06:37:00,14.5,9.5,29.97,NNW,347,11.0,17.0,80,0.00,,,0.00,0,HR-IXPWINDi_r2_v1.2.,2015-02-26 11:37:00,
2015-02-26 06:42:00,14.5,9.5,29.97,NNW,346,11.0,17.0,80,0.00,,,0.00,0,HR-IXPWINDi_r2_v1.2.,2015-02-26 11:42:00,
2015-02-26 06:47:00,14.4,9.4,29.97,North,355,10.0,14.0,80,0.00,,,0.00,0,HR-IXPWINDi_r2_v1.2.,2015-02-26 11:47:00,
2015-02-26 06:52:00,14.4,9.4,29.97,North,360,10.0,14.0,80,0.00,,,0.00,0,HR-IXPWINDi_r2_v1.2.,2015-02-26 11:52:00,
2015-02-26 06:57:00,14.3,9.3,29.96,NNE,13,12.0,14.0,80,0.00,,,0.00,0,HR-IXPWINDi_r2_v1.2.,2015-02-26 11:57:00,
2015-02-26 07:02:00,14.3,9.0,29.96,North,5,14.0,14.0,79,0.00,,,0.00,0,HR-IXPWINDi_r2_v1.2.,2015-02-26 12:02:00,
2015-02-26 07:07:00,14.1,8.8,29.97,North,360,14.0,15.0,79,0.00,,,0.00,0,HR-IXPWINDi_r2_v1.2.,2015-02-26 12:07:00,
2015-02-26 07:12:00,14.0,8.8,29.96,North,5,14.0,17.0,79,0.00,,,0.00,5,HR-IXPWINDi_r2_v1.2.,2015-02-26 12:12:00,
2015-02-26 07:17:00,13.9,8.7,29.95,NNE,12,12.0,17.0,79,0.00,,,0.00,7,HR-IXPWINDi_r2_v1.2.,2015-02-26 12:17:00,
2015-02-26 07:22:00,13.7,8.5,29.96,NNE,16,12.0,17.0,79,0.00,,,0.00,9,HR-IXPWINDi_r2_v1.2.,2015-02-26 12:22:00,
2015-02-26 07:27:00,13.5,8.3,29.96,North,11,16.0,18.0,79,0.00,,,0.00,12,HR-IXPWINDi_r2_v1.2.,2015-02-26 12:27:00,
2015-02-26 07:32:00,13.3,8.4,29.97,North,5,14.0,18.0,80,0.00,,,0.00,19,HR-IXPWINDi_r2_v1.2.,2015-02-26 12:32:00,
2015-02-26 07:37:00,13.3,8.4,29.97,North,5,9.0,18.0,80,0.00,,,0.00,25,HR-IXPWINDi_r2_v1.2.,2015-02-26 12:37:00,
2015-02-26 07:42:00,13.4,8.7,29.98,North,5,12.0,15.0,81,0.00,,,0.00,33,HR-IXPWINDi_r2_v1.2.,2015-02-26 12:42:00,
2015-02-26 07:47:00,13.4,8.7,29.98,North,5,11.0,17.0,81,0.00,,,0.00,51,HR-IXPWINDi_r2_v1.2.,2015-02-26 12:47:00,
2015-02-26 07:52:00,13.5,8.8,29.98,North,355,15.0,17.0,81,0.00,,,0.00,49,HR-IXPWINDi_r2_v1.2.,2015-02-26 12:52:00,
2015-02-26 07:57:00,13.4,8.7,29.98,NNE,12,15.0,18.0,81,0.00,,,0.00,58,HR-IXPWINDi_r2_v1.2.,2015-02-26 12:57:00,
2015-02-26 08:02:00,13.5,8.8,29.99,North,10,14.0,18.0,81,0.00,,,0.00,70,HR-IXPWINDi_r2_v1.2.,2015-02-26 13:02:00,
2015-02-26 08:07:00,13.5,8.8,29.99,North,5,13.0,18.0,81,0.00,,,0.00,83,HR-IXPWINDi_r2_v1.2.,2015-02-26 13:07:00,
2015-02-26 08:12:00,13.5,8.8,29.99,North,9,13.0,18.0,81,0.00,,,0.00,83,HR-IXPWINDi_r2_v1.2.,2015-02-26 13:12:00,
2015-02-26 08:17:00,13.6,8.9,29.99,North,360,14.0,18.0,81,0.00,,,0.00,93,HR-IXPWINDi_r2_v1.2.,2015-02-26 13:17:00,
2015-02-26 08:22:00,13.7,9.0,29.99,NNE,12,13.0,17.0,81,0.00,,,0.00,116,HR-IXPWINDi_r2_v1.2.,2015-02-26 13:22:00,
2015-02-26 08:27:00,13.9,8.9,29.99,NNE,16,12.0,16.0,80,0.00,,,0.00,130,HR-IXPWINDi_r2_v1.2.,2015-02-26 13:27:00,
2015-02-26 08:32:00,14.0,9.0,29.99,North,5,15.0,16.0,80,0.00,,,0.00,142,HR-IXPWINDi_r2_v1.2.,2015-02-26 13:32:00,
2015-02-26 08:37:00,14.1,8.8,29.99,North,5,16.0,17.0,79,0.00,,,0.00,148,HR-IXPWINDi_r2_v1.2.,2015-02-26 13:37:00,
2015-02-26 08:42:00,14.1,8.8,30.00,NNE,14,14.0,17.0,79,0.00,,,0.00,160,HR-IXPWINDi_r2_v1.2.,2015-02-26 13:42:00,
2015-02-26 08:47:00,14.2,8.9,29.99,NNE,18,12.0,17.0,79,0.00,,,0.00,151,HR-IXPWINDi_r2_v1.2.,2015-02-26 13:47:00,
2015-02-26 08:52:00,14.2,8.9,30.00,North,9,12.0,18.0,79,0.00,,,0.00,171,HR-IXPWINDi_r2_v1.2.,2015-02-26 13:52:00,
2015-02-26 08:57:00,14.3,9.0,30.00,North,9,12.0,18.0,79,0.00,,,0.00,200,HR-IXPWINDi_r2_v1.2.,2015-02-26 13:57:00,
2015-02-26 09:02:00,14.5,9.0,30.00,North,5,12.0,18.0,78,0.00,,,0.00,232,HR-IXPWINDi_r2_v1.2.,2015-02-26 14:02:00,
2015-02-26 09:07:00,14.9,9.6,30.01,North,9,12.0,17.0,79,0.00,,,0.00,271,HR-IXPWINDi_r2_v1.2.,2015-02-26 14:07:00,
2015-02-26 09:12:00,15.0,9.4,30.01,North,355,13.0,17.0,78,0.00,,,0.00,237,HR-IXPWINDi_r2_v1.2.,2015-02-26 14:12:00,
2015-02-26 09:17:00,15.0,9.4,30.02,North,355,11.0,17.0,78,0.00,,,0.00,244,HR-IXPWINDi_r2_v1.2.,2015-02-26 14:17:00,
2015-02-26 09:22:00,15.4,9.5,30.02,North,351,14.0,16.0,77,0.00,,,0.00,299,HR-IXPWINDi_r2_v1.2.,2015-02-26 14:22:00,
2015-02-26 09:27:00,15.6,9.4,30.02,North,11,10.0,16.0,76,0.00,,,0.00,348,HR-IXPWINDi_r2_v1.2.,2015-02-26 14:27:00,
2015-02-26 09:32:00,15.8,9.6,30.02,North,355,12.0,15.0,76,0.00,,,0.00,287,HR-IXPWINDi_r2_v1.2.,2015-02-26 14:32:00,
2015-02-26 09:37:00,16.0,9.8,30.03,North,360,9.0,15.0,76,0.00,,,0.00,278,HR-IXPWINDi_r2_v1.2.,2015-02-26 14:37:00,
2015-02-26 09:42:00,16.1,9.9,30.03,North,355,12.0,15.0,76,0.00,,,0.00,285,HR-IXPWINDi_r2_v1.2.,2015-02-26 14:42:00,
2015-02-26 09:48:00,16.0,9.8,30.03,NNW,348,14.0,16.0,76,0.00,,,0.00,318,HR-IXPWINDi_r2_v1.2.,2015-02-26 14:48:00,
2015-02-26 09:53:00,15.9,9.7,30.03,North,351,13.0,17.0,76,0.00,,,0.00,332,HR-IXPWINDi_r2_v1.2.,2015-02-26 14:53:00,
2015-02-26 09:58:00,16.0,9.8,30.02,North,11,11.0,17.0,76,0.00,,,0.00,315,HR-IXPWINDi_r2_v1.2.,2015-02-26 14:58:00,
2015-02-26 10:03:00,15.9,9.7,30.03,NNW,333,10.0,15.0,76,0.00,,,0.00,318,HR-IXPWINDi_r2_v1.2.,2015-02-26 15:03:00,
2015-02-26 10:08:00,15.7,9.5,30.03,North,355,11.0,16.0,76,0.00,,,0.00,332,HR-IXPWINDi_r2_v1.2.,2015-02-26 15:08:00,
2015-02-26 10:13:00,15.9,10.0,30.03,NNW,338,11.0,16.0,77,0.00,,,0.00,329,HR-IXPWINDi_r2_v1.2.,2015-02-26 15:13:00,
2015-02-26 10:18:00,16.1,10.2,30.03,NNW,344,12.0,14.0,77,0.00,,,0.00,345,HR-IXPWINDi_r2_v1.2.,2015-02-26 15:18:00,
2015-02-26 10:23:00,16.3,10.4,30.03,North,350,11.0,14.0,77,0.00,,,0.00,345,HR-IXPWINDi_r2_v1.2.,2015-02-26 15:23:00,
2015-02-26 10:28:00,16.4,10.2,30.04,North,351,13.0,16.0,76,0.00,,,0.00,345,HR-IXPWINDi_r2_v1.2.,2015-02-26 15:28:00,
2015-02-26 10:33:00,16.5,10.6,30.03,NNW,340,10.0,16.0,77,0.00,,,0.00,345,HR-IXPWINDi_r2_v1.2.,2015-02-26 15:33:00,
2015-02-26 10:38:00,16.7,10.8,30.04,NNW,336,14.0,15.0,77,0.00,,,0.00,350,HR-IXPWINDi_r2_v1.2.,2015-02-26 15:38:00,
2015-02-26 10:43:00,16.7,10.8,30.03,North,349,12.0,15.0,77,0.00,,,0.00,352,HR-IXPWINDi_r2_v1.2.,2015-02-26 15:43:00,
2015-02-26 10:48:00,16.6,10.7,30.04,NNW,348,11.0,15.0,77,0.00,,,0.00,350,HR-IXPWINDi_r2_v1.2.,2015-02-26 15:48:00,
2015-02-26 10:53:00,16.6,10.7,30.05,NNW,330,10.0,15.0,77,0.00,,,0.00,359,HR-IXPWINDi_r2_v1.2.,2015-02-26 15:53:00,
2015-02-26 10:58:00,16.6,10.7,30.05,NNW,344,13.0,17.0,77,0.00,,,0.00,403,HR-IXPWINDi_r2_v1.2.,2015-02-26 15:58:00,
2015-02-26 11:03:00,16.7,11.1,30.06,NNW,345,16.0,18.0,78,0.00,,,0.00,508,HR-IXPWINDi_r2_v1.2.,2015-02-26 16:03:00,
2015-02-26 11:08:00,16.8,11.2,30.06,NNW,346,13.0,18.0,78,0.00,,,0.00,471,HR-IXPWINDi_r2_v1.2.,2015-02-26 16:08:00,
2015-02-26 11:13:00,17.0,11.4,30.05,NNW,346,14.0,17.0,78,0.00,,,0.00,411,HR-IXPWINDi_r2_v1.2.,2015-02-26 16:13:00,
2015-02-26 11:18:00,17.3,11.7,30.06,NNW,331,12.0,16.0,78,0.00,,,0.00,425,HR-IXPWINDi_r2_v1.2.,2015-02-26 16:18:00,
2015-02-26 11:23:00,17.5,12.1,30.05,North,5,13.0,15.0,79,0.00,,,0.00,452,HR-IXPWINDi_r2_v1.2.,2015-02-26 16:23:00,
2015-02-26 11:28:00,17.5,11.9,30.06,NNW,348,12.0,15.0,78,0.00,,,0.00,455,HR-IXPWINDi_r2_v1.2.,2015-02-26 16:28:00,
2015-02-26 11:33:00,17.3,11.7,30.07,NNW,348,13.0,15.0,78,0.00,,,0.00,459,HR-IXPWINDi_r2_v1.2.,2015-02-26 16:33:00,
2015-02-26 11:38:00,17.2,11.6,30.06,NNW,338,14.0,16.0,78,0.00,,,0.00,475,HR-IXPWINDi_r2_v1.2.,2015-02-26 16:38:00,
2015-02-26 11:43:00,17.3,11.7,30.06,North,351,12.0,16.0,78,0.00,,,0.00,466,HR-IXPWINDi_r2_v1.2.,2015-02-26 16:43:00,
2015-02-26 11:48:00,17.5,11.9,30.06,North,355,13.0,16.0,78,0.00,,,0.00,475,HR-IXPWINDi_r2_v1.2.,2015-02-26 16:48:00,
2015-02-26 11:53:00,17.7,11.8,30.06,North,355,11.0,14.0,77,0.00,,,0.00,489,HR-IXPWINDi_r2_v1.2.,2015-02-26 16:53:00,
2015-02-26 11:58:00,18.1,12.2,30.06,NNE,13,8.0,14.0,77,0.00,,,0.00,478,HR-IXPWINDi_r2_v1.2.,2015-02-26 16:58:00,
2015-02-26 12:03:00,18.1,11.9,30.07,North,360,14.0,14.0,76,0.00,,,0.00,494,HR-IXPWINDi_r2_v1.2.,2015-02-26 17:03:00,
2015-02-26 12:08:00,18.3,12.3,30.07,North,355,13.0,15.0,77,0.00,,,0.00,512,HR-IXPWINDi_r2_v1.2.,2015-02-26 17:08:00,
2015-02-26 12:13:00,18.5,12.5,30.07,North,355,13.0,15.0,77,0.00,,,0.00,541,HR-IXPWINDi_r2_v1.2.,2015-02-26 17:13:00,
2015-02-26 12:18:00,18.8,12.8,30.07,North,350,10.0,14.0,77,0.00,,,0.00,529,HR-IXPWINDi_r2_v1.2.,2015-02-26 17:18:00,
2015-02-26 12:23:00,19.0,12.7,30.08,NNW,348,14.0,15.0,76,0.00,,,0.00,605,HR-IXPWINDi_r2_v1.2.,2015-02-26 17:23:00,
2015-02-26 12:28:00,18.9,12.6,30.08,NNW,348,13.0,17.0,76,0.00,,,0.00,564,HR-IXPWINDi_r2_v1.2.,2015-02-26 17:28:00,
2015-02-26 12:33:00,18.6,12.0,30.08,North,355,14.0,17.0,75,0.00,,,0.00,703,HR-IXPWINDi_r2_v1.2.,2015-02-26 17:33:00,
2015-02-26 12:38:00,18.6,12.0,30.08,North,355,12.0,17.0,75,0.00,,,0.00,696,HR-IXPWINDi_r2_v1.2.,2015-02-26 17:38:00,
2015-02-26 12:43:00,18.9,12.3,30.08,North,355,15.0,17.0,75,0.00,,,0.00,696,HR-IXPWINDi_r2_v1.2.,2015-02-26 17:43:00,
2015-02-26 12:48:00,19.0,12.4,30.08,North,9,10.0,16.0,75,0.00,,,0.00,712,HR-IXPWINDi_r2_v1.2.,2015-02-26 17:48:00,
2015-02-26 12:53:00,19.2,12.3,30.08,North,355,11.0,15.0,74,0.00,,,0.00,710,HR-IXPWINDi_r2_v1.2.,2015-02-26 17:53:00,
2015-02-26 12:58:00,19.4,12.5,30.08,North,5,8.0,14.0,74,0.00,,,0.00,712,HR-IXPWINDi_r2_v1.2.,2015-02-26 17:58:00,
2015-02-26 13:03:00,19.8,13.2,30.08,North,355,8.0,13.0,75,0.00,,,0.00,756,HR-IXPWINDi_r2_v1.2.,2015-02-26 18:03:00,
2015-02-26 13:08:00,19.9,13.3,30.08,North,350,10.0,13.0,75,0.00,,,0.00,731,HR-IXPWINDi_r2_v1.2.,2015-02-26 18:08:00,
2015-02-26 13:13:00,19.8,12.9,30.08,North,360,12.0,15.0,74,0.00,,,0.00,719,HR-IXPWINDi_r2_v1.2.,2015-02-26 18:13:00,
2015-02-26 13:18:00,19.5,12.6,30.08,NNW,347,14.0,17.0,74,0.00,,,0.00,717,HR-IXPWINDi_r2_v1.2.,2015-02-26 18:18:00,
2015-02-26 13:23:00,19.1,11.9,30.08,North,5,12.0,17.0,73,0.00,,,0.00,710,HR-IXPWINDi_r2_v1.2.,2015-02-26 18:23:00,
2015-02-26 13:28:00,19.3,12.4,30.08,North,5,10.0,16.0,74,0.00,,,0.00,707,HR-IXPWINDi_r2_v1.2.,2015-02-26 18:28:00,
2015-02-26 13:33:00,19.7,12.8,30.08,North,5,10.0,14.0,74,0.00,,,0.00,707,HR-IXPWINDi_r2_v1.2.,2015-02-26 18:33:00,
2015-02-26 13:38:00,19.9,12.7,30.08,NNW,338,11.0,16.0,73,0.00,,,0.00,698,HR-IXPWINDi_r2_v1.2.,2015-02-26 18:38:00,
2015-02-26 13:43:00,19.9,12.7,30.08,NNW,348,11.0,16.0,73,0.00,,,0.00,696,HR-IXPWINDi_r2_v1.2.,2015-02-26 18:43:00,
2015-02-26 13:48:00,20.4,13.2,30.08,North,350,10.0,15.0,73,0.00,,,0.00,693,HR-IXPWINDi_r2_v1.2.,2015-02-26 18:48:00,
2015-02-26 13:53:00,20.8,13.6,30.08,NNW,348,11.0,14.0,73,0.00,,,0.00,698,HR-IXPWINDi_r2_v1.2.,2015-02-26 18:53:00,
2015-02-26 13:58:00,21.2,13.6,30.08,NNW,348,9.0,14.0,72,0.00,,,0.00,694,HR-IXPWINDi_r2_v1.2.,2015-02-26 18:58:00,
2015-02-26 14:03:00,21.6,14.0,30.08,NNW,348,12.0,14.0,72,0.00,,,0.00,689,HR-IXPWINDi_r2_v1.2.,2015-02-26 19:03:00,
2015-02-26 14:08:00,21.8,13.9,30.09,NNW,342,11.0,14.0,71,0.00,,,0.00,629,HR-IXPWINDi_r2_v1.2.,2015-02-26 19:08:00,
2015-02-26 14:13:00,21.6,13.4,30.09,North,5,11.0,13.0,70,0.00,,,0.00,728,HR-IXPWINDi_r2_v1.2.,2015-02-26 19:13:00,
2015-02-26 14:18:00,22.0,14.1,30.10,NNW,341,9.0,13.0,71,0.00,,,0.00,696,HR-IXPWINDi_r2_v1.2.,2015-02-26 19:18:00,
2015-02-26 14:23:00,22.1,13.8,30.10,NNW,344,7.0,14.0,70,0.00,,,0.00,698,HR-IXPWINDi_r2_v1.2.,2015-02-26 19:23:00,
2015-02-26 14:28:00,22.6,14.3,30.09,North,5,12.0,14.0,70,0.00,,,0.00,707,HR-IXPWINDi_r2_v1.2.,2015-02-26 19:28:00,
2015-02-26 14:33:00,22.9,14.3,30.10,North,355,9.0,13.0,69,0.00,,,0.00,564,HR-IXPWINDi_r2_v1.2.,2015-02-26 19:33:00,
2015-02-26 14:38:00,23.2,14.2,30.10,North,5,10.0,13.0,68,0.00,,,0.00,635,HR-IXPWINDi_r2_v1.2.,2015-02-26 19:38:00,
2015-02-26 14:43:00,23.0,13.7,30.10,North,360,11.0,13.0,67,0.00,,,0.00,543,HR-IXPWINDi_r2_v1.2.,2015-02-26 19:43:00,
2015-02-26 14:48:00,22.8,13.9,30.10,NNW,347,12.0,14.0,68,0.00,,,0.00,554,HR-IXPWINDi_r2_v1.2.,2015-02-26 19:48:00,
2015-02-26 14:53:00,22.7,13.8,30.10,North,355,10.0,14.0,68,0.00,,,0.00,629,HR-IXPWINDi_r2_v1.2.,2015-02-26 19:53:00,
2015-02-26 14:58:00,23.0,14.0,30.10,North,350,11.0,14.0,68,0.00,,,0.00,666,HR-IXPWINDi_r2_v1.2.,2015-02-26 19:58:00,
2015-02-26 15:03:00,22.9,13.6,30.10,NNW,348,10.0,14.0,67,0.00,,,0.00,397,HR-IXPWINDi_r2_v1.2.,2015-02-26 20:03:00,
2015-02-26 15:08:00,22.9,13.6,30.10,North,355,13.0,14.0,67,0.00,,,0.00,464,HR-IXPWINDi_r2_v1.2.,2015-02-26 20:08:00,
2015-02-26 15:13:00,23.0,13.7,30.10,NNW,346,12.0,14.0,67,0.00,,,0.00,573,HR-IXPWINDi_r2_v1.2.,2015-02-26 20:13:00,
2015-02-26 15:18:00,23.3,14.0,30.10,North,355,12.0,15.0,67,0.00,,,0.00,540,HR-IXPWINDi_r2_v1.2.,2015-02-26 20:18:00,
2015-02-26 15:23:00,23.4,14.1,30.10,North,5,9.0,15.0,67,0.00,,,0.00,524,HR-IXPWINDi_r2_v1.2.,2015-02-26 20:23:00,
2015-02-26 15:28:00,23.4,13.8,30.10,North,5,11.0,15.0,66,0.00,,,0.00,497,HR-IXPWINDi_r2_v1.2.,2015-02-26 20:28:00,
2015-02-26 15:33:00,23.1,13.1,30.11,North,5,14.0,14.0,65,0.00,,,0.00,504,HR-IXPWINDi_r2_v1.2.,2015-02-26 20:33:00,
2015-02-26 15:38:00,23.1,13.5,30.11,North,360,14.0,14.0,66,0.00,,,0.00,496,HR-IXPWINDi_r2_v1.2.,2015-02-26 20:38:00,
2015-02-26 15:43:00,23.1,12.8,30.11,North,360,14.0,14.0,64,0.00,,,0.00,299,HR-IXPWINDi_r2_v1.2.,2015-02-26 20:43:00,
2015-02-26 15:48:00,23.1,13.1,30.12,North,355,12.0,14.0,65,0.00,,,0.00,390,HR-IXPWINDi_r2_v1.2.,2015-02-26 20:48:00,
2015-02-26 15:53:00,23.2,12.9,30.12,North,351,14.0,15.0,64,0.00,,,0.00,503,HR-IXPWINDi_r2_v1.2.,2015-02-26 20:53:00,
2015-02-26 15:58:00,23.1,12.8,30.11,North,11,12.0,15.0,64,0.00,,,0.00,353,HR-IXPWINDi_r2_v1.2.,2015-02-26 20:58:00,
2015-02-26 16:03:00,22.6,12.3,30.12,North,360,12.0,15.0,64,0.00,,,0.00,512,HR-IXPWINDi_r2_v1.2.,2015-02-26 21:03:00,
2015-02-26 16:08:00,22.5,12.2,30.12,North,5,10.0,15.0,64,0.00,,,0.00,332,HR-IXPWINDi_r2_v1.2.,2015-02-26 21:08:00,
2015-02-26 16:13:00,20.9,10.7,30.12,NNE,17,9.0,14.0,64,0.00,,,0.00,236,HR-IXPWINDi_r2_v1.2.,2015-02-26 21:13:00,
2015-02-26 16:18:00,19.9,10.4,30.13,North,5,13.0,15.0,66,0.00,,,0.00,192,HR-IXPWINDi_r2_v1.2.,2015-02-26 21:18:00,
2015-02-26 16:23:00,19.1,10.0,30.14,North,5,13.0,15.0,67,0.00,,,0.00,188,HR-IXPWINDi_r2_v1.2.,2015-02-26 21:23:00,
2015-02-26 16:28:00,18.5,10.1,30.14,North,5,9.0,15.0,69,0.00,,,0.00,204,HR-IXPWINDi_r2_v1.2.,2015-02-26 21:28:00,
2015-02-26 16:33:00,18.3,10.2,30.14,North,11,13.0,14.0,70,0.00,,,0.00,193,HR-IXPWINDi_r2_v1.2.,2015-02-26 21:33:00,
2015-02-26 16:38:00,18.1,10.0,30.15,North,5,12.0,13.0,70,0.00,,,0.00,183,HR-IXPWINDi_r2_v1.2.,2015-02-26 21:38:00,
2015-02-26 16:43:00,17.9,9.8,30.15,North,360,13.0,14.0,70,0.00,,,0.00,169,HR-IXPWINDi_r2_v1.2.,2015-02-26 21:43:00,
2015-02-26 16:48:00,17.5,9.8,30.16,North,9,11.0,15.0,71,0.00,,,0.00,137,HR-IXPWINDi_r2_v1.2.,2015-02-26 21:48:00,
2015-02-26 16:53:00,17.1,9.4,30.16,North,355,13.0,15.0,71,0.00,,,0.00,128,HR-IXPWINDi_r2_v1.2.,2015-02-26 21:53:00,
2015-02-26 16:58:00,16.9,9.5,30.16,North,355,11.0,14.0,72,0.00,,,0.00,120,HR-IXPWINDi_r2_v1.2.,2015-02-26 21:58:00,
2015-02-26 17:03:00,16.8,9.4,30.17,North,360,12.0,14.0,72,0.00,,,0.00,111,HR-IXPWINDi_r2_v1.2.,2015-02-26 22:03:00,
2015-02-26 17:08:00,16.6,9.5,30.17,North,350,11.0,14.0,73,0.00,,,0.00,102,HR-IXPWINDi_r2_v1.2.,2015-02-26 22:08:00,
2015-02-26 17:13:00,16.6,9.8,30.17,North,5,11.0,13.0,74,0.00,,,0.00,91,HR-IXPWINDi_r2_v1.2.,2015-02-26 22:13:00,
2015-02-26 17:18:00,16.4,9.6,30.18,North,355,9.0,14.0,74,0.00,,,0.00,83,HR-IXPWINDi_r2_v1.2.,2015-02-26 22:18:00,
2015-02-26 17:23:00,16.1,9.3,30.17,North,355,12.0,15.0,74,0.00,,,0.00,72,HR-IXPWINDi_r2_v1.2.,2015-02-26 22:23:00,
2015-02-26 17:28:00,16.0,9.5,30.18,North,5,14.0,15.0,75,0.00,,,0.00,63,HR-IXPWINDi_r2_v1.2.,2015-02-26 22:28:00,
2015-02-26 17:33:00,15.8,9.3,30.18,North,355,11.0,15.0,75,0.00,,,0.00,56,HR-IXPWINDi_r2_v1.2.,2015-02-26 22:33:00,
2015-02-26 17:38:00,15.7,9.5,30.18,North,355,10.0,15.0,76,0.00,,,0.00,49,HR-IXPWINDi_r2_v1.2.,2015-02-26 22:38:00,
2015-02-26 17:43:00,15.5,9.3,30.18,North,355,8.0,16.0,76,0.00,,,0.00,42,HR-IXPWINDi_r2_v1.2.,2015-02-26 22:43:00,
2015-02-26 17:48:00,15.4,9.2,30.19,North,5,10.0,16.0,76,0.00,,,0.00,35,HR-IXPWINDi_r2_v1.2.,2015-02-26 22:48:00,
2015-02-26 17:53:00,15.2,9.3,30.19,NNW,345,11.0,15.0,77,0.00,,,0.00,30,HR-IXPWINDi_r2_v1.2.,2015-02-26 22:53:00,
2015-02-26 17:58:00,15.1,9.2,30.19,North,5,11.0,13.0,77,0.00,,,0.00,23,HR-IXPWINDi_r2_v1.2.,2015-02-26 22:58:00,
2015-02-26 18:03:00,15.0,9.4,30.20,NNW,331,14.0,16.0,78,0.00,,,0.00,19,HR-IXPWINDi_r2_v1.2.,2015-02-26 23:03:00,
2015-02-26 18:08:00,14.6,9.3,30.20,NNW,344,11.0,16.0,79,0.00,,,0.00,14,HR-IXPWINDi_r2_v1.2.,2015-02-26 23:08:00,
2015-02-26 18:13:00,14.4,9.4,30.20,NNW,336,9.0,15.0,80,0.00,,,0.00,11,HR-IXPWINDi_r2_v1.2.,2015-02-26 23:13:00,
2015-02-26 18:18:00,14.2,9.5,30.21,NNW,338,9.0,14.0,81,0.00,,,0.00,5,HR-IXPWINDi_r2_v1.2.,2015-02-26 23:18:00,
2015-02-26 18:23:00,14.0,9.3,30.21,NNW,342,12.0,14.0,81,0.00,,,0.00,0,HR-IXPWINDi_r2_v1.2.,2015-02-26 23:23:00,
2015-02-26 18:28:00,13.8,9.1,30.21,NNW,340,8.0,15.0,81,0.00,,,0.00,0,HR-IXPWINDi_r2_v1.2.,2015-02-26 23:28:00,
2015-02-26 18:33:00,13.7,9.0,30.22,NNW,338,7.0,15.0,81,0.00,,,0.00,0,HR-IXPWINDi_r2_v1.2.,2015-02-26 23:33:00,
2015-02-26 18:38:00,13.6,8.9,30.22,NNW,336,10.0,13.0,81,0.00,,,0.00,0,HR-IXPWINDi_r2_v1.2.,2015-02-26 23:38:00,
2015-02-26 18:43:00,13.5,9.1,30.23,NNW,343,10.0,13.0,82,0.00,,,0.00,0,HR-IXPWINDi_r2_v1.2.,2015-02-26 23:43:00,
2015-02-26 18:48:00,13.4,9.0,30.23,NNW,340,10.0,13.0,82,0.00,,,0.00,0,HR-IXPWINDi_r2_v1.2.,2015-02-26 23:48:00,
2015-02-26 18:53:00,13.2,8.8,30.23,NNW,342,11.0,16.0,82,0.00,,,0.00,0,HR-IXPWINDi_r2_v1.2.,2015-02-26 23:53:00,
2015-02-26 18:58:00,13.2,8.8,30.24,NNW,340,11.0,16.0,82,0.00,,,0.00,0,HR-IXPWINDi_r2_v1.2.,2015-02-26 23:58:00,
2015-02-26 19:03:00,13.1,8.7,30.24,NNW,338,11.0,14.0,82,0.00,,,0.00,0,HR-IXPWINDi_r2_v1.2.,2015-02-27 00:03:00,
2015-02-26 19:08:00,13.0,8.6,30.25,NNW,333,7.0,14.0,82,0.00,,,0.00,0,HR-IXPWINDi_r2_v1.2.,2015-02-27 00:08:00,
2015-02-26 19:13:00,13.0,8.6,30.25,NNW,329,9.0,14.0,82,0.00,,,0.00,0,HR-IXPWINDi_r2_v1.2.,2015-02-27 00:13:00,
2015-02-26 19:18:00,13.0,8.6,30.25,NNW,346,12.0,13.0,82,0.00,,,0.00,0,HR-IXPWINDi_r2_v1.2.,2015-02-27 00:18:00,
2015-02-26 19:23:00,12.9,8.5,30.25,NNW,336,11.0,15.0,82,0.00,,,0.00,0,HR-IXPWINDi_r2_v1.2.,2015-02-27 00:23:00,
2015-02-26 19:28:00,12.8,8.4,30.26,NNW,340,13.0,15.0,82,0.00,,,0.00,0,HR-IXPWINDi_r2_v1.2.,2015-02-27 00:28:00,
2015-02-26 19:33:00,12.7,8.3,30.26,NNW,343,11.0,15.0,82,0.00,,,0.00,0,HR-IXPWINDi_r2_v1.2.,2015-02-27 00:33:00,
2015-02-26 19:38:00,12.7,8.3,30.26,NNW,338,10.0,15.0,82,0.00,,,0.00,0,HR-IXPWINDi_r2_v1.2.,2015-02-27 00:38:00,
2015-02-26 19:43:00,12.6,8.2,30.26,NNW,339,9.0,12.0,82,0.00,,,0.00,0,HR-IXPWINDi_r2_v1.2.,2015-02-27 00:43:00,